Weather Roundup
Issued by NWS Springfield, MO

Home | Current Version | Previous Version | Text Only | Print | Product List | Glossary On
Versions: 1 2 3 4 5 6 7 8 9 10 11 12 13 14 15 16 17 18 19 20 21 22 23 24 25 26 27 28 29 30 31 32 33 34 35 36 37 38 39 40 41 42 43 44 45 46 47 48 49 50
000
NZUS99 KSGF 291657
HRRSGF

HOURLY WEATHER
NATIONAL WEATHER SERVICE SPRINGFIELD MO
1200 PM CDT WED MAR 29 2017

......SGF CWA......

CITY           SKY/WX    TMP DP  RH WIND       PRES   REMARKS
SPRINGFIELD    CLOUDY    63  57  81 SE25G33   29.74F
JOPLIN         PTSUNNY   67  59  75 SE18G30   29.68S
WEST PLAINS    PTSUNNY   61  55  81 E10       29.88F
ROLLA          CLOUDY    60  53  77 E15       29.90F
BRANSON        CLOUDY    59  59 100 E14G21    29.79F FOG

......SURROUNDING SGF CWA......

CITY           SKY/WX    TMP DP  RH WIND       PRES   REMARKS
CHANUTE        CLOUDY    66  58  75 SE20G30   29.65R
PARSONS        CLOUDY    70  59  68 S10G21    29.66R
COFFEYVILLE    PTSUNNY   69  58  67 S18G33    29.65R
EMPORIA        CLOUDY    55  55 100 E14       29.65S FOG
HARRISON AR    CLOUDY    62  60  93 SE22G28   29.79R

......KANSAS AND MISSOURI......

CITY           SKY/WX    TMP DP  RH WIND       PRES   REMARKS
KANSAS CTY INT CLOUDY    50  48  93 E20G30    29.77F
SEDALIA        CLOUDY    53  52  96 E18G25    29.84F
ST JOSEPH      CLOUDY    49  48  97 E12G21    29.80F
ST LOUIS       LGT RAIN  54  49  83 NE13      30.03F
WICHITA        LGT RAIN  54  53  97 NE9       29.61F
TOPEKA         CLOUDY    51  50  96 E16       29.72F
OLATHE         CLOUDY    52  52 100 E18G30    29.73F

......TENNESSEE......

CITY           SKY/WX    TMP DP  RH WIND       PRES   REMARKS
MEMPHIS        NOT AVBL
NASHVILLE      PTSUNNY   71  52  50 CALM      30.08R

......ARKANSAS.......

CITY           SKY/WX    TMP DP  RH WIND       PRES   REMARKS
FAYETTEVILLE   MOSUNNY   72  57  59 S20G36    29.72R
FT SMITH       CLOUDY    71  58  63 E14       29.70F
LITTLE ROCK    CLOUDY    76  64  66 SE18G28   29.85F

......OKLAHOMA.......

CITY           SKY/WX    TMP DP  RH WIND       PRES   REMARKS
TULSA          CLOUDY    70  58  65 S22G31    29.64R
PONCA CITY     CLOUDY    56  52  86 S7G17     29.64R
MCALESTER      CLOUDY    69  56  62 S16G28    29.69F
OKLAHOMA CITY  CLOUDY    54  52  93 W10       29.69R

......IOWA............

CITY           SKY/WX    TMP DP  RH WIND       PRES   REMARKS
DES MOINES     NOT AVBL
QUAD CITIES    LGT RAIN  44  41  89 E20       30.14F FOG

......ILLINOIS........

CITY           SKY/WX    TMP DP  RH WIND       PRES   REMARKS
QUINCY         NOT AVBL
CHICAGO        CLOUDY    47  36  65 NE12      30.24S




USA.gov is the U.S. government's official web portal to all federal, state and local government web resources and services.